EDT,Max TemperatureF,Mean TemperatureF,Min TemperatureF,Max Dew PointF,MeanDew PointF,Min DewpointF,Max Humidity, Mean Humidity, Min Humidity, Max Sea Level PressureIn, Mean Sea Level PressureIn, Min Sea Level PressureIn, Max VisibilityMiles, Mean VisibilityMiles, Min VisibilityMiles, Max Wind SpeedMPH, Mean Wind SpeedMPH, Max Gust SpeedMPH,PrecipitationIn, CloudCover, Events, WindDirDegrees
2013-4-1,45,37,28,40,28,15,89,65,40,29.91,29.71,29.57,10,9,2,33,14,41,0.19,7,Rain-Snow,267
2013-4-2,32,28,24,25,22,17,88,76,63,30.07,29.98,29.90,10,2,0,32,17,45,0.25,8,Fog-Snow,263
2013-4-3,35,31,27,25,20,14,81,62,43,30.34,30.15,30.05,10,6,1,28,16,35,T,7,Snow,264
2013-4-4,55,41,27,20,18,15,63,44,24,30.35,30.18,29.91,10,10,10,17,9,22,0.00,5,,225
2013-4-5,46,39,32,29,21,13,63,47,30,30.08,29.94,29.86,10,10,9,22,12,29,T,6,Rain,277
2013-4-6,45,35,25,18,11,5,55,38,20,30.34,30.24,30.11,10,10,10,14,7,18,0.00,3,,20
2013-4-7,67,53,39,39,28,15,65,47,29,30.10,29.91,29.74,10,10,10,28,13,38,T,7,Rain,187
2013-4-8,57,49,40,39,34,30,70,57,43,30.14,30.02,29.80,10,10,10,16,6,21,T,8,Rain,35
2013-4-9,67,56,45,46,42,39,93,71,48,30.11,29.98,29.77,10,9,4,25,10,32,0.50,8,Rain,291
2013-4-10,52,47,42,46,45,39,93,85,77,30.02,29.94,29.84,10,7,1,24,5,30,0.61,8,Rain-Thunderstorm,354
2013-4-11,42,38,34,39,32,26,92,76,59,30.13,30.05,29.94,10,9,4,18,8,24,0.15,8,Rain,22
2013-4-12,42,38,33,39,35,28,93,83,73,29.99,29.74,29.63,10,5,2,23,11,28,0.83,8,Rain,78
2013-4-13,50,45,39,36,34,32,79,68,56,29.94,29.84,29.78,10,10,9,24,10,30,0.02,8,Rain,231
2013-4-14,49,41,32,33,28,24,82,64,45,30.22,30.07,29.93,10,10,2,22,9,29,0.01,7,Rain-Snow,272
2013-4-15,70,50,30,43,35,26,78,58,37,30.24,30.16,30.08,10,10,10,22,10,29,T,6,Rain,119
2013-4-16,64,54,44,55,47,35,89,72,55,30.21,30.07,29.95,10,8,2,29,14,39,0.25,8,Rain,238
2013-4-17,57,46,35,33,31,26,82,57,32,30.34,30.29,30.23,10,10,10,17,5,21,0.00,3,,305
2013-4-18,72,55,38,52,43,33,79,60,40,30.25,30.02,29.83,10,10,10,30,14,39,0.05,8,Rain,127
2013-4-19,75,59,43,57,49,34,86,68,50,29.81,29.64,29.41,10,9,2,35,17,45,0.39,8,Rain,209
2013-4-20,48,40,31,32,26,18,67,54,41,30.39,30.00,29.75,10,10,9,36,15,44,T,7,Rain-Snow,268
2013-4-21,47,38,28,22,19,16,69,49,28,30.66,30.59,30.42,10,10,10,14,5,17,T,4,,323
2013-4-22,60,45,29,25,23,20,78,50,21,30.63,30.52,30.40,10,10,10,21,9,26,0.00,4,,115
2013-4-23,63,49,34,39,30,21,71,48,25,30.41,30.24,30.03,10,10,10,16,9,25,0.00,1,,115
2013-4-24,72,57,42,54,43,34,80,62,44,30.01,29.83,29.63,10,10,7,32,14,41,0.04,7,Rain,166
2013-4-25,56,48,39,34,27,22,67,48,29,30.30,30.17,30.01,10,10,10,24,9,31,0.01,6,Rain,278
2013-4-26,55,46,37,38,33,27,92,65,38,30.47,30.41,30.32,10,9,5,13,4,21,0.05,6,Rain,278
2013-4-27,65,49,32,36,32,29,82,55,28,30.45,30.36,30.25,10,10,10,12,3,15,T,3,,75
2013-4-28,75,57,39,45,36,33,85,55,25,30.25,30.15,30.04,10,10,8,25,9,31,0.05,5,Rain,135
2013-4-29,59,55,50,49,46,43,83,73,62,30.12,30.08,30.06,10,9,6,20,10,28,0.19,8,Rain,128
2013-4-30,70,62,53,50,48,46,83,66,49,30.25,30.19,30.11,10,10,10,21,10,28,0.00,7,,145